Year,Month,Day,Hour,Minute,Value (Times are PST for temperature in C)
2019,08,09,00,00,13.00
2019,08,09,00,01,13.00
2019,08,09,00,02,12.90
2019,08,09,00,03,12.90
2019,08,09,00,04,12.90
2019,08,09,00,05,12.90
2019,08,09,00,06,12.90
2019,08,09,00,07,12.90
2019,08,09,00,08,12.90
2019,08,09,00,09,12.90
2019,08,09,00,10,12.90
2019,08,09,00,11,12.90
2019,08,09,00,12,12.80
2019,08,09,00,13,12.80
2019,08,09,00,14,12.80
2019,08,09,00,15,12.80
2019,08,09,00,16,12.80
2019,08,09,00,17,12.80
2019,08,09,00,18,12.80
2019,08,09,00,19,12.80
2019,08,09,00,20,12.80
2019,08,09,00,21,12.80
2019,08,09,00,22,12.80
2019,08,09,00,23,12.80
2019,08,09,00,24,12.80
2019,08,09,00,25,12.80
2019,08,09,00,26,12.80
2019,08,09,00,27,12.80
2019,08,09,00,28,12.80
2019,08,09,00,29,12.80
2019,08,09,00,30,12.80
2019,08,09,00,31,12.80
2019,08,09,00,32,12.80
2019,08,09,00,33,12.80
2019,08,09,00,34,12.80
2019,08,09,00,35,12.80
2019,08,09,00,36,12.80
2019,08,09,00,37,12.80
2019,08,09,00,38,12.80
2019,08,09,00,39,12.80
2019,08,09,00,40,12.80
2019,08,09,00,41,12.80
2019,08,09,00,42,12.80
2019,08,09,00,43,12.80
2019,08,09,00,44,12.80
2019,08,09,00,45,12.80
2019,08,09,00,46,12.70
2019,08,09,00,47,12.70
2019,08,09,00,48,12.70
2019,08,09,00,49,12.70
2019,08,09,00,50,12.70
2019,08,09,00,51,12.70
2019,08,09,00,52,12.70
2019,08,09,00,53,12.70
2019,08,09,00,54,12.70
2019,08,09,00,55,12.70
2019,08,09,00,56,12.70
2019,08,09,00,57,12.70
2019,08,09,00,58,12.70
2019,08,09,00,59,12.60
2019,08,09,01,00,12.60
2019,08,09,01,01,12.60
2019,08,09,01,02,12.60
2019,08,09,01,03,12.60
2019,08,09,01,04,12.60
2019,08,09,01,05,12.60
2019,08,09,01,06,12.60
2019,08,09,01,07,12.60
2019,08,09,01,08,12.60
2019,08,09,01,09,12.60
2019,08,09,01,10,12.60
2019,08,09,01,11,12.60
2019,08,09,01,12,12.60
2019,08,09,01,13,12.60
2019,08,09,01,14,12.60
2019,08,09,01,15,12.60
2019,08,09,01,16,12.50
2019,08,09,01,17,12.50
2019,08,09,01,18,12.50
2019,08,09,01,19,12.50
2019,08,09,01,20,12.50
2019,08,09,01,21,12.50
2019,08,09,01,22,12.50
2019,08,09,01,23,12.50
2019,08,09,01,24,12.50
2019,08,09,01,25,12.40
2019,08,09,01,26,12.40
2019,08,09,01,27,12.40
2019,08,09,01,28,12.50
2019,08,09,01,29,12.50
2019,08,09,01,30,12.40
2019,08,09,01,31,12.40
2019,08,09,01,32,12.50
2019,08,09,01,33,12.50
2019,08,09,01,34,12.40
2019,08,09,01,35,12.40
2019,08,09,01,36,12.40
2019,08,09,01,37,12.40
2019,08,09,01,38,12.40
2019,08,09,01,39,12.40
2019,08,09,01,40,12.40
2019,08,09,01,41,12.40
2019,08,09,01,42,12.40
2019,08,09,01,43,12.40
2019,08,09,01,44,12.40
2019,08,09,01,45,12.40
2019,08,09,01,46,12.40
2019,08,09,01,47,12.40
2019,08,09,01,48,12.40
2019,08,09,01,49,12.40
2019,08,09,01,50,12.40
2019,08,09,01,51,12.40
2019,08,09,01,52,12.40
2019,08,09,01,53,12.40
2019,08,09,01,54,12.40
2019,08,09,01,55,12.40
2019,08,09,01,56,12.40
2019,08,09,01,57,12.40
2019,08,09,01,58,12.40
2019,08,09,01,59,12.40
2019,08,09,02,00,12.40
2019,08,09,02,01,12.40
2019,08,09,02,02,12.30
2019,08,09,02,03,12.30
2019,08,09,02,04,12.30
2019,08,09,02,05,12.30
2019,08,09,02,06,12.30
2019,08,09,02,07,12.30
2019,08,09,02,08,12.30
2019,08,09,02,09,12.30
2019,08,09,02,10,12.30
2019,08,09,02,11,12.30
2019,08,09,02,12,12.30
2019,08,09,02,13,12.20
2019,08,09,02,14,12.20
2019,08,09,02,15,12.20
2019,08,09,02,16,12.20
2019,08,09,02,17,12.20
2019,08,09,02,18,12.20
2019,08,09,02,19,12.20
2019,08,09,02,20,12.20
2019,08,09,02,21,12.20
2019,08,09,02,22,12.10
2019,08,09,02,23,12.10
2019,08,09,02,24,12.10
2019,08,09,02,25,12.10
2019,08,09,02,26,12.10
2019,08,09,02,27,12.10
2019,08,09,02,28,12.10
2019,08,09,02,29,12.10
2019,08,09,02,30,12.10
2019,08,09,02,31,12.00
2019,08,09,02,32,12.00
2019,08,09,02,33,12.00
2019,08,09,02,34,12.00
2019,08,09,02,35,12.00
2019,08,09,02,36,12.00
2019,08,09,02,37,11.90
2019,08,09,02,38,11.90
2019,08,09,02,39,11.90
2019,08,09,02,40,11.90
2019,08,09,02,41,11.90
2019,08,09,02,42,11.90
2019,08,09,02,43,11.90
2019,08,09,02,44,11.90
2019,08,09,02,45,11.80
2019,08,09,02,46,11.80
2019,08,09,02,47,11.80
2019,08,09,02,48,11.80
2019,08,09,02,49,11.80
2019,08,09,02,50,11.80
2019,08,09,02,51,11.80
2019,08,09,02,52,11.80
2019,08,09,02,53,11.80
2019,08,09,02,54,11.80
2019,08,09,02,55,11.80
2019,08,09,02,56,11.80
2019,08,09,02,57,11.80
2019,08,09,02,58,11.80
2019,08,09,02,59,11.80
2019,08,09,03,00,11.70
2019,08,09,03,01,11.70
2019,08,09,03,02,11.70
2019,08,09,03,03,11.70
2019,08,09,03,04,11.70
2019,08,09,03,05,11.70
2019,08,09,03,06,11.70
2019,08,09,03,07,11.70
2019,08,09,03,08,11.70
2019,08,09,03,09,11.70
2019,08,09,03,10,11.70
2019,08,09,03,11,11.70
2019,08,09,03,12,11.70
2019,08,09,03,13,11.70
2019,08,09,03,14,11.70
2019,08,09,03,15,11.70
2019,08,09,03,16,11.70
2019,08,09,03,17,11.70
2019,08,09,03,18,11.70
2019,08,09,03,19,11.70
2019,08,09,03,20,11.70
2019,08,09,03,21,11.70
2019,08,09,03,22,11.70
2019,08,09,03,23,11.70
2019,08,09,03,24,11.70
2019,08,09,03,25,11.70
2019,08,09,03,26,11.70
2019,08,09,03,27,11.60
2019,08,09,03,28,11.60
2019,08,09,03,29,11.60
2019,08,09,03,30,11.60
2019,08,09,03,31,11.60
2019,08,09,03,32,11.60
2019,08,09,03,33,11.60
2019,08,09,03,34,11.60
2019,08,09,03,35,11.60
2019,08,09,03,36,11.60
2019,08,09,03,37,11.60
2019,08,09,03,38,11.60
2019,08,09,03,39,11.60
2019,08,09,03,40,11.60
2019,08,09,03,41,11.60
2019,08,09,03,42,11.60
2019,08,09,03,43,11.60
2019,08,09,03,44,11.50
2019,08,09,03,45,11.50
2019,08,09,03,46,11.50
2019,08,09,03,47,11.50
2019,08,09,03,48,11.50
2019,08,09,03,49,11.50
2019,08,09,03,50,11.50
2019,08,09,03,51,11.50
2019,08,09,03,52,11.50
2019,08,09,03,53,11.40
2019,08,09,03,54,11.40
2019,08,09,03,55,11.40
2019,08,09,03,56,11.40
2019,08,09,03,57,11.40
2019,08,09,03,58,11.40
2019,08,09,03,59,11.40
2019,08,09,04,00,11.40
2019,08,09,04,01,11.30
2019,08,09,04,02,11.30
2019,08,09,04,03,11.30
2019,08,09,04,04,11.30
2019,08,09,04,05,11.30
2019,08,09,04,06,11.30
2019,08,09,04,07,11.30
2019,08,09,04,08,11.30
2019,08,09,04,09,11.20
2019,08,09,04,10,11.20
2019,08,09,04,11,11.20
2019,08,09,04,12,11.20
2019,08,09,04,13,11.20
2019,08,09,04,14,11.20
2019,08,09,04,15,11.20
2019,08,09,04,16,11.20
2019,08,09,04,17,11.10
2019,08,09,04,18,11.10
2019,08,09,04,19,11.10
2019,08,09,04,20,11.10
2019,08,09,04,21,11.10
2019,08,09,04,22,11.10
2019,08,09,04,23,11.10
2019,08,09,04,24,11.10
2019,08,09,04,25,11.00
2019,08,09,04,26,11.00
2019,08,09,04,27,11.00
2019,08,09,04,28,11.00
2019,08,09,04,29,11.00
2019,08,09,04,30,11.00
2019,08,09,04,31,11.00
2019,08,09,04,32,11.00
2019,08,09,04,33,10.90
2019,08,09,04,34,11.00
2019,08,09,04,35,11.00
2019,08,09,04,36,10.90
2019,08,09,04,37,10.90
2019,08,09,04,38,10.90
2019,08,09,04,39,10.90
2019,08,09,04,40,10.90
2019,08,09,04,41,10.90
2019,08,09,04,42,10.90
2019,08,09,04,43,10.90
2019,08,09,04,44,10.90
2019,08,09,04,45,10.90
2019,08,09,04,46,10.90
2019,08,09,04,47,10.90
2019,08,09,04,48,10.90
2019,08,09,04,49,10.90
2019,08,09,04,50,10.90
2019,08,09,04,51,10.90
2019,08,09,04,52,10.90
2019,08,09,04,53,10.90
2019,08,09,04,54,10.90
2019,08,09,04,55,10.90
2019,08,09,04,56,10.90
2019,08,09,04,57,10.90
2019,08,09,04,58,10.90
2019,08,09,04,59,10.90
2019,08,09,05,00,10.90
2019,08,09,05,01,10.90
2019,08,09,05,02,10.90
2019,08,09,05,03,10.90
2019,08,09,05,04,10.90
2019,08,09,05,05,10.90
2019,08,09,05,06,10.90
2019,08,09,05,07,11.00
2019,08,09,05,08,11.00
2019,08,09,05,09,11.00
2019,08,09,05,10,11.00
2019,08,09,05,11,11.00
2019,08,09,05,12,11.00
2019,08,09,05,13,11.00
2019,08,09,05,14,11.00
2019,08,09,05,15,11.10
2019,08,09,05,16,11.10
2019,08,09,05,17,11.10
2019,08,09,05,18,11.10
2019,08,09,05,19,11.10
2019,08,09,05,20,11.10
2019,08,09,05,21,11.10
2019,08,09,05,22,11.10
2019,08,09,05,23,11.10
2019,08,09,05,24,11.10
2019,08,09,05,25,11.10
2019,08,09,05,26,11.10
2019,08,09,05,27,11.10
2019,08,09,05,28,11.10
2019,08,09,05,29,11.10
2019,08,09,05,30,11.10
2019,08,09,05,31,11.10
2019,08,09,05,32,11.10
2019,08,09,05,33,11.10
2019,08,09,05,34,11.10
2019,08,09,05,35,11.10
2019,08,09,05,36,11.10
2019,08,09,05,37,11.10
2019,08,09,05,38,11.10
2019,08,09,05,39,11.10
2019,08,09,05,40,11.10
2019,08,09,05,41,11.10
2019,08,09,05,42,11.10
2019,08,09,05,43,11.10
2019,08,09,05,44,11.10
2019,08,09,05,45,11.10
2019,08,09,05,46,11.10
2019,08,09,05,47,11.10
2019,08,09,05,48,11.10
2019,08,09,05,49,11.10
2019,08,09,05,50,11.10
2019,08,09,05,51,11.10
2019,08,09,05,52,11.10
2019,08,09,05,53,11.10
2019,08,09,05,54,11.10
2019,08,09,05,55,11.10
2019,08,09,05,56,11.10
2019,08,09,05,57,11.10
2019,08,09,05,58,11.10
2019,08,09,05,59,11.10
2019,08,09,06,00,11.10
2019,08,09,06,01,11.10
2019,08,09,06,02,11.10
2019,08,09,06,03,11.10
2019,08,09,06,04,11.10
2019,08,09,06,05,11.10
2019,08,09,06,06,11.10
2019,08,09,06,07,11.10
2019,08,09,06,08,11.10
2019,08,09,06,09,11.10
2019,08,09,06,10,11.20
2019,08,09,06,11,11.20
2019,08,09,06,12,11.20
2019,08,09,06,13,11.20
2019,08,09,06,14,11.20
2019,08,09,06,15,11.20
2019,08,09,06,16,11.20
2019,08,09,06,17,11.20
2019,08,09,06,18,11.30
2019,08,09,06,19,11.30
2019,08,09,06,20,11.30
2019,08,09,06,21,11.30
2019,08,09,06,22,11.30
2019,08,09,06,23,11.30
2019,08,09,06,24,11.40
2019,08,09,06,25,11.40
2019,08,09,06,26,11.40
2019,08,09,06,27,11.40
2019,08,09,06,28,11.40
2019,08,09,06,29,11.40
2019,08,09,06,30,11.40
2019,08,09,06,31,11.40
2019,08,09,06,32,11.40
2019,08,09,06,33,11.40
2019,08,09,06,34,11.40
2019,08,09,06,35,11.40
2019,08,09,06,36,11.40
2019,08,09,06,37,11.40
2019,08,09,06,38,11.40
2019,08,09,06,39,11.40
2019,08,09,06,40,11.40
2019,08,09,06,41,11.40
2019,08,09,06,42,11.40
2019,08,09,06,43,11.40
2019,08,09,06,44,11.40
2019,08,09,06,45,11.40
2019,08,09,06,46,11.40
2019,08,09,06,47,11.40
2019,08,09,06,48,11.40
2019,08,09,06,49,11.40
2019,08,09,06,50,11.40
2019,08,09,06,51,11.40
2019,08,09,06,52,11.40
2019,08,09,06,53,11.40
2019,08,09,06,54,11.40
2019,08,09,06,55,11.40
2019,08,09,06,56,11.40
2019,08,09,06,57,11.40
2019,08,09,06,58,11.40
2019,08,09,06,59,11.50
2019,08,09,07,00,11.50
2019,08,09,07,01,11.60
2019,08,09,07,02,11.60
2019,08,09,07,03,11.60
2019,08,09,07,04,11.70
2019,08,09,07,05,11.70
2019,08,09,07,06,11.70
2019,08,09,07,07,11.70
2019,08,09,07,08,11.70
2019,08,09,07,09,11.80
2019,08,09,07,10,11.80
2019,08,09,07,11,11.80
2019,08,09,07,12,11.90
2019,08,09,07,13,11.90
2019,08,09,07,14,11.90
2019,08,09,07,15,12.00
2019,08,09,07,16,12.00
2019,08,09,07,17,12.10
2019,08,09,07,18,12.10
2019,08,09,07,19,12.20
2019,08,09,07,20,12.20
2019,08,09,07,21,12.30
2019,08,09,07,22,12.30
2019,08,09,07,23,12.30
2019,08,09,07,24,12.40
2019,08,09,07,25,12.40
2019,08,09,07,26,12.50
2019,08,09,07,27,12.50
2019,08,09,07,28,12.60
2019,08,09,07,29,12.60
2019,08,09,07,30,12.70
2019,08,09,07,31,12.70
2019,08,09,07,32,12.80
2019,08,09,07,33,12.80
2019,08,09,07,34,12.80
2019,08,09,07,35,12.90
2019,08,09,07,36,13.00
2019,08,09,07,37,13.00
2019,08,09,07,38,13.10
2019,08,09,07,39,13.10
2019,08,09,07,40,13.10
2019,08,09,07,41,13.20
2019,08,09,07,42,13.20
2019,08,09,07,43,13.20
2019,08,09,07,44,13.20
2019,08,09,07,45,13.20
2019,08,09,07,46,13.30
2019,08,09,07,47,13.30
2019,08,09,07,48,13.30
2019,08,09,07,49,13.30
2019,08,09,07,50,13.40
2019,08,09,07,51,13.40
2019,08,09,07,52,13.40
2019,08,09,07,53,13.40
2019,08,09,07,54,13.40
2019,08,09,07,55,13.50
2019,08,09,07,56,13.50
2019,08,09,07,57,13.50
2019,08,09,07,58,13.60
2019,08,09,07,59,13.60
2019,08,09,08,00,13.60
2019,08,09,08,01,13.60
2019,08,09,08,02,13.60
2019,08,09,08,03,13.60
2019,08,09,08,04,13.60
2019,08,09,08,05,13.60
2019,08,09,08,06,13.60
2019,08,09,08,07,13.60
2019,08,09,08,08,13.60
2019,08,09,08,09,13.60
2019,08,09,08,10,13.60
2019,08,09,08,11,13.60
2019,08,09,08,12,13.70
2019,08,09,08,13,13.70
2019,08,09,08,14,13.70
2019,08,09,08,15,13.70
2019,08,09,08,16,13.70
2019,08,09,08,17,13.80
2019,08,09,08,18,13.80
2019,08,09,08,19,13.80
2019,08,09,08,20,13.80
2019,08,09,08,21,13.80
2019,08,09,08,22,13.80
2019,08,09,08,23,13.90
2019,08,09,08,24,13.90
2019,08,09,08,25,13.90
2019,08,09,08,26,13.90
2019,08,09,08,27,13.90
2019,08,09,08,28,13.90
2019,08,09,08,29,14.00
2019,08,09,08,30,14.00
2019,08,09,08,31,14.10
2019,08,09,08,32,14.10
2019,08,09,08,33,14.10
2019,08,09,08,34,14.10
2019,08,09,08,35,14.10
2019,08,09,08,36,14.10
2019,08,09,08,37,14.20
2019,08,09,08,38,14.20
2019,08,09,08,39,14.20
2019,08,09,08,40,14.20
2019,08,09,08,41,14.20
2019,08,09,08,42,14.30
2019,08,09,08,43,14.30
2019,08,09,08,44,14.30
2019,08,09,08,45,14.30
2019,08,09,08,46,14.30
2019,08,09,08,47,14.40
2019,08,09,08,48,14.40
2019,08,09,08,49,14.50
2019,08,09,08,50,14.50
2019,08,09,08,51,14.50
2019,08,09,08,52,14.60
2019,08,09,08,53,14.60
2019,08,09,08,54,14.70
2019,08,09,08,55,14.80
2019,08,09,08,56,14.80
2019,08,09,08,57,14.80
2019,08,09,08,58,14.90
2019,08,09,08,59,14.90
2019,08,09,09,00,14.90
2019,08,09,09,01,14.90
2019,08,09,09,02,15.00
2019,08,09,09,03,15.00
2019,08,09,09,04,15.00
2019,08,09,09,05,15.10
2019,08,09,09,06,15.10
2019,08,09,09,07,15.20
2019,08,09,09,08,15.20
2019,08,09,09,09,15.20
2019,08,09,09,10,15.30
2019,08,09,09,11,15.30
2019,08,09,09,12,15.30
2019,08,09,09,13,15.30
2019,08,09,09,14,15.30
2019,08,09,09,15,15.40
2019,08,09,09,16,15.40
2019,08,09,09,17,15.40
2019,08,09,09,18,15.50
2019,08,09,09,19,15.50
2019,08,09,09,20,15.60
2019,08,09,09,21,15.60
2019,08,09,09,22,15.70
2019,08,09,09,23,15.70
2019,08,09,09,24,15.70
2019,08,09,09,25,15.70
2019,08,09,09,26,15.70
2019,08,09,09,27,15.80
2019,08,09,09,28,15.80
2019,08,09,09,29,15.80
2019,08,09,09,30,15.80
2019,08,09,09,31,15.80
2019,08,09,09,32,15.80
2019,08,09,09,33,15.90
2019,08,09,09,34,15.90
2019,08,09,09,35,15.90
2019,08,09,09,36,16.00
2019,08,09,09,37,16.00
2019,08,09,09,38,16.10
2019,08,09,09,39,16.10
2019,08,09,09,40,16.10
2019,08,09,09,41,16.20
2019,08,09,09,42,16.20
2019,08,09,09,43,16.20
2019,08,09,09,44,16.20
2019,08,09,09,45,16.30
2019,08,09,09,46,16.30
2019,08,09,09,47,16.40
2019,08,09,09,48,16.40
2019,08,09,09,49,16.40
2019,08,09,09,50,16.50
2019,08,09,09,51,16.50
2019,08,09,09,52,16.50
2019,08,09,09,53,16.60
2019,08,09,09,54,16.60
2019,08,09,09,55,16.60
2019,08,09,09,56,16.60
2019,08,09,09,57,16.60
2019,08,09,09,58,16.60
2019,08,09,09,59,16.60
2019,08,09,10,00,16.60
2019,08,09,10,01,16.60
2019,08,09,10,02,16.70
2019,08,09,10,03,16.70
2019,08,09,10,04,16.70
2019,08,09,10,05,16.70
2019,08,09,10,06,16.70
2019,08,09,10,07,16.80
2019,08,09,10,08,16.80
2019,08,09,10,09,16.80
2019,08,09,10,10,16.80
2019,08,09,10,11,16.80
2019,08,09,10,12,16.70
2019,08,09,10,13,16.70
2019,08,09,10,14,16.70
2019,08,09,10,15,16.70
2019,08,09,10,16,16.70
2019,08,09,10,17,16.60
2019,08,09,10,18,16.60
2019,08,09,10,19,16.60
2019,08,09,10,20,16.60
2019,08,09,10,21,16.60
2019,08,09,10,22,16.60
2019,08,09,10,23,16.60
2019,08,09,10,24,16.60
2019,08,09,10,25,16.60
2019,08,09,10,26,16.60
2019,08,09,10,27,16.60
2019,08,09,10,28,16.60
2019,08,09,10,29,16.50
2019,08,09,10,30,16.50
2019,08,09,10,31,16.50
2019,08,09,10,32,16.50
2019,08,09,10,33,16.50
2019,08,09,10,34,16.50
2019,08,09,10,35,16.50
2019,08,09,10,36,16.50
2019,08,09,10,37,16.60
2019,08,09,10,38,16.60
2019,08,09,10,39,16.60
2019,08,09,10,40,16.70
2019,08,09,10,41,16.70
2019,08,09,10,42,16.70
2019,08,09,10,43,16.80
2019,08,09,10,44,16.80
2019,08,09,10,45,16.80
2019,08,09,10,46,16.80
2019,08,09,10,47,16.80
2019,08,09,10,48,16.80
2019,08,09,10,49,16.90
2019,08,09,10,50,16.90
2019,08,09,10,51,16.90
2019,08,09,10,52,16.90
2019,08,09,10,53,17.00
2019,08,09,10,54,17.00
2019,08,09,10,55,17.00
2019,08,09,10,56,17.10
2019,08,09,10,57,17.10
2019,08,09,10,58,17.10
2019,08,09,10,59,17.10
2019,08,09,11,00,17.10
2019,08,09,11,01,17.20
2019,08,09,11,02,17.20
2019,08,09,11,03,17.20
2019,08,09,11,04,17.20
2019,08,09,11,05,17.20
2019,08,09,11,06,17.20
2019,08,09,11,07,17.20
2019,08,09,11,08,17.30
2019,08,09,11,09,17.30
2019,08,09,11,10,17.30
2019,08,09,11,11,17.40
2019,08,09,11,12,17.40
2019,08,09,11,13,17.50
2019,08,09,11,14,17.50
2019,08,09,11,15,17.50
2019,08,09,11,16,17.50
2019,08,09,11,17,17.50
2019,08,09,11,18,17.50
2019,08,09,11,19,17.60
2019,08,09,11,20,17.60
2019,08,09,11,21,17.70
2019,08,09,11,22,17.70
2019,08,09,11,23,17.70
2019,08,09,11,24,17.80
2019,08,09,11,25,17.80
2019,08,09,11,26,17.90
2019,08,09,11,27,17.90
2019,08,09,11,28,18.00
2019,08,09,11,29,18.00
2019,08,09,11,30,18.10
2019,08,09,11,31,18.20
2019,08,09,11,32,18.20
2019,08,09,11,33,18.20
2019,08,09,11,34,18.30
2019,08,09,11,35,18.30
2019,08,09,11,36,18.30
2019,08,09,11,37,18.30
2019,08,09,11,38,18.30
2019,08,09,11,39,18.30
2019,08,09,11,40,18.30
2019,08,09,11,41,18.30
2019,08,09,11,42,18.40
2019,08,09,11,43,18.50
2019,08,09,11,44,18.60
2019,08,09,11,45,18.70
2019,08,09,11,46,18.80
2019,08,09,11,47,18.80
2019,08,09,11,48,18.90
2019,08,09,11,49,19.00
2019,08,09,11,50,19.00
2019,08,09,11,51,19.00
2019,08,09,11,52,19.10
2019,08,09,11,53,19.10
2019,08,09,11,54,19.20
2019,08,09,11,55,19.20
2019,08,09,11,56,19.30
2019,08,09,11,57,19.30
2019,08,09,11,58,19.30
2019,08,09,11,59,19.40
2019,08,09,12,00,19.40
2019,08,09,12,01,19.50
2019,08,09,12,02,19.60
2019,08,09,12,03,19.60
2019,08,09,12,04,19.70
2019,08,09,12,05,19.70
2019,08,09,12,06,19.80
2019,08,09,12,07,19.90
2019,08,09,12,08,19.90
2019,08,09,12,09,19.90
2019,08,09,12,10,19.90
2019,08,09,12,11,20.00
2019,08,09,12,12,20.00
2019,08,09,12,13,20.00
2019,08,09,12,14,20.00
2019,08,09,12,15,20.00
2019,08,09,12,16,20.00
2019,08,09,12,17,20.10
2019,08,09,12,18,20.10
2019,08,09,12,19,20.10
2019,08,09,12,20,20.00
2019,08,09,12,21,19.90
2019,08,09,12,22,19.90
2019,08,09,12,23,19.90
2019,08,09,12,24,19.80
2019,08,09,12,25,19.90
2019,08,09,12,26,19.90
2019,08,09,12,27,19.90
2019,08,09,12,28,19.90
2019,08,09,12,29,19.90
2019,08,09,12,30,19.90
2019,08,09,12,31,19.90
2019,08,09,12,32,19.90
2019,08,09,12,33,19.90
2019,08,09,12,34,20.00
2019,08,09,12,35,20.00
2019,08,09,12,36,20.10
2019,08,09,12,37,20.00
2019,08,09,12,38,20.00
2019,08,09,12,39,20.10
2019,08,09,12,40,20.10
2019,08,09,12,41,20.20
2019,08,09,12,42,20.20
2019,08,09,12,43,20.20
2019,08,09,12,44,20.30
2019,08,09,12,45,20.30
2019,08,09,12,46,20.30
2019,08,09,12,47,20.30
2019,08,09,12,48,20.30
2019,08,09,12,49,20.30
2019,08,09,12,50,20.30
2019,08,09,12,51,20.20
2019,08,09,12,52,20.20
2019,08,09,12,53,20.20
2019,08,09,12,54,20.10
2019,08,09,12,55,20.10
2019,08,09,12,56,20.00
2019,08,09,12,57,20.00
2019,08,09,12,58,19.90
2019,08,09,12,59,19.90
2019,08,09,13,00,19.90
2019,08,09,13,01,19.90
2019,08,09,13,02,20.00
2019,08,09,13,03,20.00
2019,08,09,13,04,20.00
2019,08,09,13,05,20.00
2019,08,09,13,06,20.00
2019,08,09,13,07,20.00
2019,08,09,13,08,20.00
2019,08,09,13,09,20.10
2019,08,09,13,10,20.10
2019,08,09,13,11,20.10
2019,08,09,13,12,20.20
2019,08,09,13,13,20.30
2019,08,09,13,14,20.40
2019,08,09,13,15,20.40
2019,08,09,13,16,20.40
2019,08,09,13,17,20.50
2019,08,09,13,18,20.60
2019,08,09,13,19,20.60
2019,08,09,13,20,20.60
2019,08,09,13,21,20.70
2019,08,09,13,22,20.70
2019,08,09,13,23,20.70
2019,08,09,13,24,20.70
2019,08,09,13,25,20.60
2019,08,09,13,26,20.50
2019,08,09,13,27,20.40
2019,08,09,13,28,20.30
2019,08,09,13,29,20.30
2019,08,09,13,30,20.30
2019,08,09,13,31,20.40
2019,08,09,13,32,20.40
2019,08,09,13,33,20.50
2019,08,09,13,34,20.50
2019,08,09,13,35,20.60
2019,08,09,13,36,20.70
2019,08,09,13,37,20.70
2019,08,09,13,38,20.70
2019,08,09,13,39,20.70
2019,08,09,13,40,20.70
2019,08,09,13,41,20.70
2019,08,09,13,42,20.70
2019,08,09,13,43,20.70
2019,08,09,13,44,20.70
2019,08,09,13,45,20.70
2019,08,09,13,46,20.70
2019,08,09,13,47,20.60
2019,08,09,13,48,20.50
2019,08,09,13,49,20.50
2019,08,09,13,50,20.40
2019,08,09,13,51,20.40
2019,08,09,13,52,20.30
2019,08,09,13,53,20.30
2019,08,09,13,54,20.20
2019,08,09,13,55,20.20
2019,08,09,13,56,20.10
2019,08,09,13,57,20.10
2019,08,09,13,58,20.00
2019,08,09,13,59,20.00
2019,08,09,14,00,20.00
2019,08,09,14,01,20.00
2019,08,09,14,02,20.00
2019,08,09,14,03,20.10
2019,08,09,14,04,20.10
2019,08,09,14,05,20.10
2019,08,09,14,06,20.10
2019,08,09,14,07,20.10
2019,08,09,14,08,20.20
2019,08,09,14,09,20.20
2019,08,09,14,10,20.30
2019,08,09,14,11,20.30
2019,08,09,14,12,20.40
2019,08,09,14,13,20.50
2019,08,09,14,14,20.60
2019,08,09,14,15,20.60
2019,08,09,14,16,20.70
2019,08,09,14,17,20.80
2019,08,09,14,18,20.90
2019,08,09,14,19,21.00
2019,08,09,14,20,21.00
2019,08,09,14,21,21.10
2019,08,09,14,22,21.20
2019,08,09,14,23,21.30
2019,08,09,14,24,21.30
2019,08,09,14,25,21.40
2019,08,09,14,26,21.40
2019,08,09,14,27,21.40
2019,08,09,14,28,21.40
2019,08,09,14,29,21.40
2019,08,09,14,30,21.40
2019,08,09,14,31,21.40
2019,08,09,14,32,21.40
2019,08,09,14,33,21.40
2019,08,09,14,34,21.30
2019,08,09,14,35,21.30
2019,08,09,14,36,21.20
2019,08,09,14,37,21.20
2019,08,09,14,38,21.30
2019,08,09,14,39,21.30
2019,08,09,14,40,21.40
2019,08,09,14,41,21.40
2019,08,09,14,42,21.50
2019,08,09,14,43,21.50
2019,08,09,14,44,21.60
2019,08,09,14,45,21.60
2019,08,09,14,46,21.60
2019,08,09,14,47,21.60
2019,08,09,14,48,21.60
2019,08,09,14,49,21.60
2019,08,09,14,50,21.60
2019,08,09,14,51,21.60
2019,08,09,14,52,21.60
2019,08,09,14,53,21.60
2019,08,09,14,54,21.70
2019,08,09,14,55,21.60
2019,08,09,14,56,21.60
2019,08,09,14,57,21.70
2019,08,09,14,58,21.60
2019,08,09,14,59,21.60
2019,08,09,15,00,21.60
2019,08,09,15,01,21.50
2019,08,09,15,02,21.50
2019,08,09,15,03,21.40
2019,08,09,15,04,21.30
2019,08,09,15,05,21.20
2019,08,09,15,06,21.10
2019,08,09,15,07,21.10
2019,08,09,15,08,21.10
2019,08,09,15,09,21.00
2019,08,09,15,10,21.00
2019,08,09,15,11,20.90
2019,08,09,15,12,20.90
2019,08,09,15,13,20.80
2019,08,09,15,14,20.80
2019,08,09,15,15,20.80
2019,08,09,15,16,20.80
2019,08,09,15,17,20.80
2019,08,09,15,18,20.80
2019,08,09,15,19,20.70
2019,08,09,15,20,20.70
2019,08,09,15,21,20.70
2019,08,09,15,22,20.60
2019,08,09,15,23,20.60
2019,08,09,15,24,20.60
2019,08,09,15,25,20.60
2019,08,09,15,26,20.50
2019,08,09,15,27,20.50
2019,08,09,15,28,20.50
2019,08,09,15,29,20.60
2019,08,09,15,30,20.60
2019,08,09,15,31,20.60
2019,08,09,15,32,20.60
2019,08,09,15,33,20.60
2019,08,09,15,34,20.60
2019,08,09,15,35,20.60
2019,08,09,15,36,20.60
2019,08,09,15,37,20.60
2019,08,09,15,38,20.60
2019,08,09,15,39,20.70
2019,08,09,15,40,20.70
2019,08,09,15,41,20.70
2019,08,09,15,42,20.70
2019,08,09,15,43,20.70
2019,08,09,15,44,20.60
2019,08,09,15,45,20.60
2019,08,09,15,46,20.60
2019,08,09,15,47,20.60
2019,08,09,15,48,20.60
2019,08,09,15,49,20.60
2019,08,09,15,50,20.60
2019,08,09,15,51,20.60
2019,08,09,15,52,20.60
2019,08,09,15,53,20.60
2019,08,09,15,54,20.60
2019,08,09,15,55,20.60
2019,08,09,15,56,20.60
2019,08,09,15,57,20.60
2019,08,09,15,58,20.60
2019,08,09,15,59,20.70
2019,08,09,16,00,20.70
2019,08,09,16,01,20.80
2019,08,09,16,02,20.80
2019,08,09,16,03,20.80
2019,08,09,16,04,20.90
2019,08,09,16,05,20.90
2019,08,09,16,06,20.90
2019,08,09,16,07,20.90
2019,08,09,16,08,20.90
2019,08,09,16,09,21.00
2019,08,09,16,10,21.10
2019,08,09,16,11,21.20
2019,08,09,16,12,21.20
2019,08,09,16,13,21.30
2019,08,09,16,14,21.30
2019,08,09,16,15,21.40
2019,08,09,16,16,21.50
2019,08,09,16,17,21.50
2019,08,09,16,18,21.60
2019,08,09,16,19,21.60
2019,08,09,16,20,21.60
2019,08,09,16,21,21.60
2019,08,09,16,22,21.60
2019,08,09,16,23,21.60
2019,08,09,16,24,21.50
2019,08,09,16,25,21.50
2019,08,09,16,26,21.40
2019,08,09,16,27,21.40
2019,08,09,16,28,21.30
2019,08,09,16,29,21.30
2019,08,09,16,30,21.30
2019,08,09,16,31,21.30
2019,08,09,16,32,21.30
2019,08,09,16,33,21.40
2019,08,09,16,34,21.40
2019,08,09,16,35,21.40
2019,08,09,16,36,21.40
2019,08,09,16,37,21.40
2019,08,09,16,38,21.40
2019,08,09,16,39,21.50
2019,08,09,16,40,21.50
2019,08,09,16,41,21.50
2019,08,09,16,42,21.50
2019,08,09,16,43,21.50
2019,08,09,16,44,21.50
2019,08,09,16,45,21.40
2019,08,09,16,46,21.40
2019,08,09,16,47,21.30
2019,08,09,16,48,21.30
2019,08,09,16,49,21.30
2019,08,09,16,50,21.20
2019,08,09,16,51,21.20
2019,08,09,16,52,21.10
2019,08,09,16,53,21.00
2019,08,09,16,54,20.90
2019,08,09,16,55,20.80
2019,08,09,16,56,20.80
2019,08,09,16,57,20.70
2019,08,09,16,58,20.60
2019,08,09,16,59,20.50
2019,08,09,17,00,20.40
2019,08,09,17,01,20.30
2019,08,09,17,02,20.30
2019,08,09,17,03,20.20
2019,08,09,17,04,20.20
2019,08,09,17,05,20.10
2019,08,09,17,06,20.10
2019,08,09,17,07,20.10
2019,08,09,17,08,20.10
2019,08,09,17,09,20.10
2019,08,09,17,10,20.10
2019,08,09,17,11,20.10
2019,08,09,17,12,20.10
2019,08,09,17,13,20.00
2019,08,09,17,14,20.10
2019,08,09,17,15,20.10
2019,08,09,17,16,20.10
2019,08,09,17,17,20.10
2019,08,09,17,18,20.20
2019,08,09,17,19,20.20